EW6143 Weather Reports


time (UTC)temp
C
wind
direction
speed
KPH
gust
KPH
rain 1hr
cm
rain 24hr
cm
rain mn
cm
humidity
%
barometer
mb
20260906090037 26 319 0.0 3.2 0.00 0.00 0.00 81 1012.5
20260906084538 26 319 1.6 4.8 0.00 0.00 0.00 81 1012.4
20260906080042 26 317 1.6 4.8 0.00 0.00 0.00 80 1012.9
20260906074539 26 306 1.6 4.8 0.00 0.00 0.00 79 1012.7
20260906063035 27 321 1.6 8.0 0.00 0.00 0.00 76 1013.0
20260906061538 27 275 4.8 9.7 0.00 0.00 0.00 75 1012.9
20260906053034 27 289 3.2 11.3 0.00 0.00 0.00 72 1013.1
20260906051534 27 327 3.2 11.3 0.00 0.00 0.00 71 1013.0
20260906033035 29 0 0.0 4.8 0.00 0.00 0.00 69 1012.9
20260906024535 30 302 3.2 12.9 0.00 0.00 0.00 65 1013.0
20260906003038 33 262 12.9 25.7 0.00 0.00 0.00 50 1011.2
20260905233047 36 263 1.6 9.7 0.00 0.00 0.00 41 1010.5
20260905230103 36 0 0.0 11.3 0.00 0.00 0.00 42 1010.6
20260905224539 36 333 1.6 16.1 0.00 0.00 0.00 41 1010.6
20260905221539 36 0 0.0 14.5 0.00 0.00 0.00 41 1010.6
20260905213037 37 292 9.7 16.1 0.00 0.00 0.00 40 1011.0
20260905204536 38 207 1.6 6.4 0.00 0.00 0.00 39 1011.6
20260905193035 36 327 3.2 14.5 0.00 0.00 0.00 45 1012.5
20260905191535 36 319 1.6 6.4 0.00 0.00 0.00 45 1013.0
20260905183039 35 279 9.7 19.3 0.00 0.00 0.00 48 1013.9
20260905180036 35 15 3.2 12.9 0.00 0.00 0.00 44 1014.4
20260905174544 35 350 4.8 14.5 0.00 0.00 0.00 46 1014.5
20260905171535 34 265 11.3 20.9 0.00 0.00 0.00 51 1014.8
20260905170035 35 268 6.4 17.7 0.00 0.00 0.00 52 1015.0
20260905163036 35 292 3.2 12.9 0.00 0.00 0.00 50 1015.1
20260905161534 35 316 1.6 4.8 0.00 0.00 0.00 51 1015.0
20260905153036 33 81 1.6 11.3 0.00 0.00 0.00 57 1015.1
20260905144541 31 9 3.2 8.0 0.00 0.00 0.00 63 1014.7
20260905140038 29 0 1.6 4.8 0.00 0.00 0.00 69 1014.9
20260905131553 27 0 0.0 0.0 0.00 0.00 0.00 76 1014.7
20260905130036 26 0 0.0 0.0 0.00 0.00 0.00 77 1014.4
20260905121537 25 0 0.0 1.6 0.00 0.00 0.00 77 1013.8
20260905113040 25 0 0.0 0.0 0.00 0.00 0.00 75 1014.0
20260905111546 25 0 0.0 0.0 0.00 0.00 0.00 75 1014.0
20260905110034 25 0 0.0 0.0 0.00 0.00 0.00 74 1013.8
20260905103036 26 0 0.0 0.0 0.00 0.00 0.00 73 1013.9
20260905101539 26 0 0.0 0.0 0.00 0.00 0.00 73 1013.8